Home > Weather > Tartu > Past weeks

Flag for Estonia Weather for the Past 2 Weeks in Tartu, Estonia

Now
32 °F

Light snow. Mostly cloudy.


Feels Like: 24 °F
Forecast: 32 / 35 °F
Wind: 9 mph from Southeast

Location: Tartu/Ulenurme

Current Time: Feb 12, 2016 at 6:58:03 AM

Latest Report: Feb 12, 2016 at 5:50 AM


Visibility: 2 mi

Pressure: 29.30 "Hg

Humidity: 93%

Dew point: 30 °F

Location of TartuLocation

Historic Weather in Tartu — Graph

°F

Tartu Temperature Yesterday

Maximum temperature yesterday: 39 °F (at 12:50 AM)
Minimum temperature yesterday: 34 °F (at 8:50 PM)
Average temperature yesterday: 38 °F

High & Low Weather Summary for the Past Weeks

 TemperatureHumidityPressure
High45 °F (Jan 28, 11:50 AM)93% (Jan 28, 6:50 AM)30.04 "Hg (Jan 28, 6:50 AM)
Low23 °F (Feb 6, 7:50 AM)69% (Feb 6, 2:50 PM)28.94 "Hg (Feb 2, 8:50 AM)
Average36 °F85%29.43 "Hg
* Reported Jan 28 4:50 AM — Feb 12 4:50 AM, Tartu, Weather by CustomWeather, © 2016

Note: Actual official high and low records may vary slightly from our data, if they occured in-between our weather recording intervals... More about our weather records

Advertising

Tartu Weather History for the Previous 24 Hours

 ConditionsComfort  
Time TempWeatherWind HumidityBarometerVisibility
4:50 AM
Fri, Feb 12
34 °FLight snow. Mostly cloudy.12 mph87%29.33 "HgN/A
3:50 AM34 °FLight snow. Low clouds.12 mph87%29.33 "HgN/A
2:50 AM34 °FLight rain. Mostly cloudy.14 mph87%29.33 "Hg3 mi
1:50 AM34 °FLight snow. Low clouds.13 mph87%29.36 "Hg2 mi
12:50 AM34 °FLight rain. Low clouds.13 mph87%29.36 "Hg2 mi
10:50 PM
Thu, Feb 11
34 °FSnow flurries. Mostly cloudy.10 mph87%29.39 "Hg5 mi
9:50 PM34 °FLight snow. Low clouds.10 mph87%29.39 "HgN/A
8:50 PM34 °FLight rain. Mostly cloudy.12 mph87%29.42 "HgN/A
7:50 PM36 °FLight rain. Overcast.12 mph87%29.42 "HgN/A
6:50 PM36 °FDrizzle. Mostly cloudy.13 mph87%29.42 "HgN/A
5:50 PM37 °FLight rain. Mostly cloudy.14 mph81%29.42 "HgN/A
4:50 PM37 °FMostly cloudy.12 mph87%29.39 "HgN/A
3:50 PM37 °FLight rain. Mostly cloudy.14 mph87%29.39 "HgN/A
2:50 PM39 °FLight rain. Cloudy.12 mph87%29.39 "HgN/A
1:50 PM39 °FLight rain. Mostly cloudy.13 mph81%29.39 "HgN/A
12:50 PM39 °FLight rain. Cloudy.14 mph87%29.39 "HgN/A
11:50 AM39 °FLight rain. Mostly cloudy.14 mph87%29.39 "HgN/A
10:50 AM39 °FLight rain. Mostly cloudy.13 mph87%29.36 "HgN/A
9:50 AM37 °FLight rain. Mostly cloudy.10 mph93%29.36 "HgN/A
8:50 AM37 °FMostly cloudy.10 mph87%29.36 "HgN/A
7:50 AM37 °FMostly cloudy.12 mph87%29.39 "HgN/A
6:50 AM37 °FLight rain. Mostly cloudy.10 mph87%29.39 "Hg2 mi
Weather by CustomWeather, © 2016

See weather overviewHow to use our weather pages